Other Surface Observations
Issued by NWS

Home | Current Version | Previous Version | Text Only | Print | Product List | Glossary On
Versions: 1 2 3 4 5 6 7 8 9 10 11 12 13 14 15 16 17 18 19 20 21 22 23 24 25 26 27 28 29 30 31 32 33 34 35 36 37 38 39 40 41 42 43 44 45 46 47 48 49 50
587
SXUS52 KTAE 041318
OSOTAE
OSOTAE
North Florida/South Alabama/Southwest Georgia Weather Roundup
National Weather Service Tallahassee Florida
800 AM EST SUN DEC 04 2016

Note: "fair" indicates few or no clouds below 12,000 feet with no
significant weather and/or obstructions to visibility.

!FLZ017-115-028-034-025-041400
...North Florida...

CITY           SKY/WX    TMP DP  RH WIND       PRES   REMARKS
TALLAHASSEE    CLOUDY    59  54  83 SE6       30.06R
APALACHICOLA   CLOUDY    68  64  87 SE12      30.03R
PERRY          PTCLDY    60  55  82 SE6       30.07R
CROSS CITY     CLEAR     57  54  88 SE3       30.07S
JACKSONVILLE   MOCLDY    59  57  93 CALM      30.10R
$$

!FLZ112-006-005-002-011-041400
...Florida Panhandle...

CITY           SKY/WX    TMP DP  RH WIND       PRES   REMARKS
MARIANNA       CLOUDY    58  53  84 E5        30.05R
BONIFAY        CLOUDY    58  52  80 E5        30.04S
PANAMA CITY NW CLOUDY    58  52  80 E9        30.01S
TYNDALL AFB    CLOUDY    58  54  88 E6        30.02S
TYND DRONE APT NOT AVBL
DE FUNIAK SPR  NOT AVBL
EGLIN AFB      DRIZZLE   61  55  80 E12       29.98F
DESTIN         CLOUDY    66  60  81 E12       29.98F
HURLBURT       CLOUDY    63  57  82 E10       29.96F
CRESTVIEW      CLOUDY    60  52  74 VRB3      30.01F
PENSACOLA      CLOUDY    63  58  83 E7        29.96S
$$

!ALZ063-066-041400
...South Alabama...

CITY           SKY/WX    TMP DP  RH WIND       PRES   REMARKS
DOTHAN         CLOUDY    57  52  83 SE10      30.07S
OZARK CAIRNS   CLOUDY    59  51  76 SE12      30.03S
FT RUCKER HELI CLOUDY    59  50  72 VRB7      30.03R
RUCKER HELI 3  NOT AVBL
RUCKER HELI 2  CLOUDY    59  51  75 SE8       30.04R
FLORALA APT    CLOUDY    59  51  75 SE7       30.02F
ANDALUSIA      CLOUDY    63  48  59 SE8       30.00F
TROY           CLOUDY    55  53  93 E5        30.03R
EUFALA         CLOUDY    58  49  72 E8        30.06S
MOBILE         TSTM      59  58  96 SE5       29.94R FOG
$$

!GAZ120>161-041400
...Southwest and South Central Georgia...

CITY           SKY/WX    TMP DP  RH WIND       PRES   REMARKS
THOMASVILLE    MOCLDY    55  54  94 E6        30.09R
BAINBRIDGE     MOCLDY    55  52  88 E5        30.08R
MOODY AFB      PTCLDY    54  49  86 NE6       30.08R
VALDOSTA       CLOUDY    55  54  96 SE6       30.07F
MOULTRIE       MOCLDY    54  50  87 E3        30.09S
BLAKELY        CLOUDY    59  52  77 CALM      30.08R
ALBANY         CLOUDY    57  50  77 E6        30.11R
TIFTON         CLOUDY    54  48  81 E6        30.09F
FITZGERALD     NOT AVBL
CORDELE        NOT AVBL
AMERICUS       CLOUDY    52  41  66 E8        30.12R
HOMERVILLE     FAIR      55  52  88 NE3       30.10R
$$

!GMZ750-755-770-775-041400
...Coastal and Buoy Obs...

STATION/POSITION TIME  TEMP    WIND        PRES    VSBY  WAVE
                       AIR SEA DIR/SP/G                  HT/PER
                 (UTC) (F)     (DEG/KT/KT) (MB)    (MI)  (FT/S)
KEATON BEACH     1300   60      90/ 10/ 12 1017.5R
CEDAR KEY        1200   62     110/ 10/ 11 1018.3S
C TOWER          1300   69     140/ 23/ 26 1017.2R
APALACHICOLA BUO 1250   73 74  140/ 21/ 25 1015.9R         7/ 6
PANAMA CITY BUOY 1150   74 75              1014.4          6/ 6
MOBILE BUOY      1250   76 76  160/ 19/ 25 1012.5R         8/ 7
ORANGE BCH AL BU 1250   73 69  140/ 19/ 23 1012.9F         8/ 7
$$




USA.gov is the U.S. government's official web portal to all federal, state and local government web resources and services.